Time,TemperatureF,DewpointF,PressureIn,WindDirection,WindDirectionDegrees,WindSpeedMPH,WindSpeedGustMPH,Humidity,HourlyPrecipIn,Conditions,Clouds,dailyrainin,SoftwareType,DateUTC
2014-09-16 00:02:00,79.3,72.2,30.08,ESE,107,0.0,1.0,79,0.00,,BKN029,0.00,VWS V15.00,2014-09-16 05:02:00,
2014-09-16 00:07:00,79.3,72.6,30.08,SW,225,1.0,2.0,80,0.00,,BKN029,0.00,VWS V15.00,2014-09-16 05:07:00,
2014-09-16 00:12:00,79.2,72.5,30.08,SW,224,1.0,2.0,80,0.00,,BKN029,0.00,VWS V15.00,2014-09-16 05:12:00,
2014-09-16 00:17:00,79.0,72.3,30.08,SSW,212,0.0,2.0,80,0.00,,BKN029,0.00,VWS V15.00,2014-09-16 05:17:00,
2014-09-16 00:22:00,78.9,72.6,30.07,SW,224,0.0,3.0,81,0.00,,BKN029,0.00,VWS V15.00,2014-09-16 05:22:00,
2014-09-16 00:27:00,78.8,72.5,30.07,SSW,208,1.0,3.0,81,0.00,,BKN029,0.00,VWS V15.00,2014-09-16 05:27:00,
2014-09-16 00:32:00,78.7,72.8,30.07,SW,232,0.0,1.0,82,0.00,,BKN029,0.00,VWS V15.00,2014-09-16 05:32:00,
2014-09-16 00:37:00,78.5,72.6,30.07,WSW,240,1.0,2.0,82,0.00,,BKN029,0.00,VWS V15.00,2014-09-16 05:37:00,
2014-09-16 00:42:00,78.4,72.4,30.07,SW,217,1.0,2.0,82,0.00,,BKN029,0.00,VWS V15.00,2014-09-16 05:42:00,
2014-09-16 00:47:00,78.3,72.7,30.07,SW,232,0.0,2.0,83,0.00,,BKN029,0.00,VWS V15.00,2014-09-16 05:47:00,
2014-09-16 00:52:00,78.1,72.5,30.07,South,184,1.0,2.0,83,0.00,,BKN029,0.00,VWS V15.00,2014-09-16 05:52:00,
2014-09-16 00:58:00,78.0,72.4,30.07,NNW,341,0.0,2.0,83,0.00,,BKN029,0.00,VWS V15.00,2014-09-16 05:58:00,
2014-09-16 01:03:00,77.9,72.3,30.07,WSW,248,2.0,3.0,83,0.00,,BKN029,0.00,VWS V15.00,2014-09-16 06:03:00,
2014-09-16 01:08:00,77.9,72.7,30.07,WSW,250,0.0,3.0,84,0.00,,BKN029,0.00,VWS V15.00,2014-09-16 06:08:00,
2014-09-16 01:13:00,77.7,72.5,30.07,WSW,239,1.0,3.0,84,0.00,,BKN029,0.00,VWS V15.00,2014-09-16 06:13:00,
2014-09-16 01:18:00,77.6,72.4,30.07,SW,236,0.0,3.0,84,0.00,,BKN029,0.00,VWS V15.00,2014-09-16 06:18:00,
2014-09-16 01:23:00,77.5,72.3,30.07,SW,236,0.0,3.0,84,0.00,,BKN029,0.00,VWS V15.00,2014-09-16 06:23:00,
2014-09-16 01:25:00,77.4,72.5,30.07,WSW,238,0.0,3.0,85,0.00,,BKN029,0.00,VWS V15.00,2014-09-16 06:25:00,
2014-09-16 01:30:00,77.3,72.4,30.07,SW,229,1.0,1.0,85,0.00,,BKN029,0.00,VWS V15.00,2014-09-16 06:30:00,
2014-09-16 01:35:00,77.2,72.3,30.07,SW,232,0.0,1.0,85,0.00,,BKN029,0.00,VWS V15.00,2014-09-16 06:35:00,
2014-09-16 01:40:00,77.1,72.2,30.07,WSW,248,1.0,1.0,85,0.00,,BKN029,0.00,VWS V15.00,2014-09-16 06:40:00,
2014-09-16 01:45:00,77.0,72.5,30.07,SW,226,0.0,1.0,86,0.00,,BKN029,0.00,VWS V15.00,2014-09-16 06:45:00,
2014-09-16 01:50:00,77.0,72.5,30.07,East,86,0.0,2.0,86,0.00,,BKN029,0.00,VWS V15.00,2014-09-16 06:50:00,
2014-09-16 01:55:00,76.9,72.4,30.07,East,98,0.0,2.0,86,0.00,,BKN029,0.00,VWS V15.00,2014-09-16 06:55:00,
2014-09-16 02:00:00,76.9,72.4,30.07,ESE,106,0.0,1.0,86,0.00,,BKN029,0.00,VWS V15.00,2014-09-16 07:00:00,
2014-09-16 02:05:00,76.8,72.3,30.06,ESE,106,0.0,1.0,86,0.00,,BKN029,0.00,VWS V15.00,2014-09-16 07:05:00,
2014-09-16 02:08:00,76.8,72.3,30.06,WSW,257,0.0,1.0,86,0.00,,BKN029,0.00,VWS V15.00,2014-09-16 07:08:00,
2014-09-16 02:13:00,76.7,72.5,30.06,WSW,248,0.0,1.0,87,0.00,,BKN029,0.00,VWS V15.00,2014-09-16 07:13:00,
2014-09-16 02:18:00,76.6,72.4,30.06,WSW,242,0.0,1.0,87,0.00,,BKN029,0.00,VWS V15.00,2014-09-16 07:18:00,
2014-09-16 02:23:00,76.6,72.4,30.06,WSW,248,0.0,1.0,87,0.00,,BKN029,0.00,VWS V15.00,2014-09-16 07:23:00,
2014-09-16 02:28:00,76.6,72.4,30.06,SW,233,0.0,1.0,87,0.00,,BKN029,0.00,VWS V15.00,2014-09-16 07:28:00,
2014-09-16 02:33:00,76.5,72.3,30.06,SSW,197,0.0,1.0,87,0.00,,BKN029,0.00,VWS V15.00,2014-09-16 07:33:00,
2014-09-16 02:39:00,76.5,72.3,30.07,SW,225,0.0,1.0,87,0.00,,BKN029,0.00,VWS V15.00,2014-09-16 07:39:00,
2014-09-16 02:44:00,76.5,72.3,30.06,SW,218,0.0,1.0,87,0.00,,BKN029,0.00,VWS V15.00,2014-09-16 07:44:00,
2014-09-16 02:49:00,76.5,72.3,30.06,East,89,0.0,1.0,87,0.00,,BKN029,0.00,VWS V15.00,2014-09-16 07:49:00,
2014-09-16 02:54:00,76.5,72.3,30.06,WSW,243,0.0,1.0,87,0.00,,BKN029,0.00,VWS V15.00,2014-09-16 07:54:00,
2014-09-16 02:59:00,76.4,72.2,30.06,WSW,245,0.0,1.0,87,0.00,,BKN029,0.00,VWS V15.00,2014-09-16 07:59:00,
2014-09-16 03:04:00,76.4,72.6,30.06,WSW,242,0.0,1.0,88,0.00,,BKN029,0.00,VWS V15.00,2014-09-16 08:04:00,
2014-09-16 03:09:00,76.3,72.5,30.06,WSW,243,0.0,1.0,88,0.00,,BKN029,0.00,VWS V15.00,2014-09-16 08:09:00,
2014-09-16 03:14:00,76.3,72.5,30.06,WSW,243,0.0,1.0,88,0.00,,BKN029,0.00,VWS V15.00,2014-09-16 08:14:00,
2014-09-16 03:17:00,76.2,72.4,30.05,WSW,243,0.0,1.0,88,0.00,,BKN029,0.00,VWS V15.00,2014-09-16 08:17:00,
2014-09-16 03:22:00,76.2,72.4,30.05,WSW,254,0.0,1.0,88,0.00,,BKN029,0.00,VWS V15.00,2014-09-16 08:22:00,
2014-09-16 03:27:00,76.1,72.3,30.05,WSW,243,0.0,1.0,88,0.00,,BKN029,0.00,VWS V15.00,2014-09-16 08:27:00,
2014-09-16 03:31:00,76.1,72.3,30.05,WSW,242,0.0,0.0,88,0.00,,BKN029,0.00,VWS V15.00,2014-09-16 08:31:00,
2014-09-16 03:36:00,76.1,72.3,30.05,WSW,249,0.0,1.0,88,0.00,,BKN029,0.00,VWS V15.00,2014-09-16 08:36:00,
2014-09-16 03:41:00,76.0,72.2,30.05,SSW,203,0.0,1.0,88,0.00,,BKN029,0.00,VWS V15.00,2014-09-16 08:41:00,
2014-09-16 03:47:00,76.0,72.2,30.05,South,190,0.0,1.0,88,0.00,,BKN029,0.00,VWS V15.00,2014-09-16 08:47:00,
2014-09-16 03:52:00,76.0,72.5,30.05,SSW,208,0.0,1.0,89,0.00,,BKN029,0.00,VWS V15.00,2014-09-16 08:52:00,
2014-09-16 03:57:00,76.0,72.5,30.05,SW,219,0.0,1.0,89,0.00,,BKN029,0.00,VWS V15.00,2014-09-16 08:57:00,
2014-09-16 04:02:00,76.0,72.5,30.05,SW,219,1.0,1.0,89,0.00,,BKN029,0.00,VWS V15.00,2014-09-16 09:02:00,
2014-09-16 04:07:00,75.9,72.4,30.05,SW,218,0.0,1.0,89,0.00,,BKN029,0.00,VWS V15.00,2014-09-16 09:07:00,
2014-09-16 04:12:00,75.9,72.4,30.05,SW,218,0.0,1.0,89,0.00,,BKN029,0.00,VWS V15.00,2014-09-16 09:12:00,
2014-09-16 04:17:00,75.9,72.4,30.05,SW,219,0.0,1.0,89,0.00,,BKN029,0.00,VWS V15.00,2014-09-16 09:17:00,
2014-09-16 04:22:00,75.9,72.4,30.05,SW,221,0.0,1.0,89,0.00,,BKN029,0.00,VWS V15.00,2014-09-16 09:22:00,
2014-09-16 04:27:00,75.9,72.4,30.05,SSW,198,0.0,1.0,89,0.00,,BKN029,0.00,VWS V15.00,2014-09-16 09:27:00,
2014-09-16 04:32:00,75.8,72.3,30.05,SSW,203,0.0,0.0,89,0.00,,BKN029,0.00,VWS V15.00,2014-09-16 09:32:00,
2014-09-16 04:37:00,75.8,72.3,30.05,SSW,198,0.0,0.0,89,0.00,,BKN029,0.00,VWS V15.00,2014-09-16 09:37:00,
2014-09-16 04:38:00,75.8,72.3,30.05,SSW,198,0.0,0.0,89,0.00,,BKN029,0.00,VWS V15.00,2014-09-16 09:38:00,
2014-09-16 04:43:00,75.8,72.3,30.05,SSW,201,0.0,0.0,89,0.00,,BKN029,0.00,VWS V15.00,2014-09-16 09:43:00,
2014-09-16 04:48:00,75.8,72.3,30.05,SSW,201,0.0,0.0,89,0.00,,BKN029,0.00,VWS V15.00,2014-09-16 09:48:00,
2014-09-16 04:53:00,75.7,72.2,30.05,SSW,201,0.0,0.0,89,0.00,,BKN029,0.00,VWS V15.00,2014-09-16 09:53:00,
2014-09-16 04:58:00,75.6,72.1,30.05,SSW,201,0.0,0.0,89,0.00,,BKN029,0.00,VWS V15.00,2014-09-16 09:58:00,
2014-09-16 05:03:00,75.6,72.1,30.05,SSW,201,0.0,0.0,89,0.00,,BKN029,0.00,VWS V15.00,2014-09-16 10:03:00,
2014-09-16 05:08:00,75.5,72.0,30.04,SSW,201,0.0,0.0,89,0.00,,BKN029,0.00,VWS V15.00,2014-09-16 10:08:00,
2014-09-16 05:13:00,75.5,72.4,30.04,SSW,203,0.0,0.0,90,0.00,,BKN029,0.00,VWS V15.00,2014-09-16 10:13:00,
2014-09-16 05:17:00,75.4,72.3,30.04,SSW,200,0.0,0.0,90,0.00,,BKN029,0.00,VWS V15.00,2014-09-16 10:17:00,
2014-09-16 05:22:00,75.4,72.3,30.05,WNW,297,1.0,1.0,90,0.00,,BKN029,0.00,VWS V15.00,2014-09-16 10:22:00,
2014-09-16 05:27:00,75.3,72.2,30.04,WNW,293,0.0,1.0,90,0.00,,BKN029,0.00,VWS V15.00,2014-09-16 10:27:00,
2014-09-16 05:32:00,75.3,72.2,30.04,West,280,0.0,1.0,90,0.00,,BKN029,0.00,VWS V15.00,2014-09-16 10:32:00,
2014-09-16 05:37:00,75.3,72.2,30.04,West,274,0.0,1.0,90,0.00,,BKN029,0.00,VWS V15.00,2014-09-16 10:37:00,
2014-09-16 05:42:00,75.3,72.2,30.05,NW,316,0.0,1.0,90,0.00,,BKN029,0.00,VWS V15.00,2014-09-16 10:42:00,
2014-09-16 05:47:00,75.2,72.1,30.05,West,281,0.0,1.0,90,0.00,,BKN029,0.00,VWS V15.00,2014-09-16 10:47:00,
2014-09-16 05:53:00,75.2,72.1,30.05,West,263,0.0,1.0,90,0.00,,BKN029,0.00,VWS V15.00,2014-09-16 10:53:00,
2014-09-16 05:58:00,75.1,72.0,30.05,WSW,248,0.0,1.0,90,0.00,,BKN029,0.00,VWS V15.00,2014-09-16 10:58:00,
2014-09-16 06:03:00,75.1,72.0,30.05,SW,225,0.0,0.0,90,0.00,,BKN029,0.00,VWS V15.00,2014-09-16 11:03:00,
2014-09-16 06:08:00,75.0,71.9,30.05,SW,224,0.0,0.0,90,0.00,,BKN029,0.00,VWS V15.00,2014-09-16 11:08:00,
2014-09-16 06:13:00,75.0,71.9,30.05,SW,222,0.0,1.0,90,0.00,,BKN029,0.00,VWS V15.00,2014-09-16 11:13:00,
2014-09-16 06:18:00,75.0,71.9,30.05,SW,222,0.0,1.0,90,0.00,,BKN029,0.00,VWS V15.00,2014-09-16 11:18:00,
2014-09-16 06:23:00,74.9,71.8,30.05,SW,223,0.0,1.0,90,0.00,,BKN029,0.00,VWS V15.00,2014-09-16 11:23:00,
2014-09-16 06:28:00,74.9,72.1,30.05,SW,229,0.0,1.0,91,0.00,,BKN029,0.00,VWS V15.00,2014-09-16 11:28:00,
2014-09-16 06:33:00,74.9,72.1,30.05,SW,231,0.0,1.0,91,0.00,,BKN029,0.00,VWS V15.00,2014-09-16 11:33:00,